TimePST,TemperatureF,Dew PointF,Humidity,Sea Level PressureIn,VisibilityMPH,Wind Direction,Wind SpeedMPH,Gust SpeedMPH,PrecipitationIn,Events,Conditions,WindDirDegrees,DateUTC
12:15 AM,55.4,32.0,41,29.87,10.0,Calm,Calm,-,N/A,,Clear,0,2012-11-08 08:15:00
12:35 AM,57.2,33.8,41,29.86,10.0,NNE,4.6,-,N/A,,Clear,20,2012-11-08 08:35:00
12:55 AM,57.2,33.8,41,29.86,10.0,NNE,3.5,-,N/A,,Clear,20,2012-11-08 08:55:00
1:15 AM,57.2,32.0,38,29.85,10.0,NNE,4.6,-,N/A,,Clear,30,2012-11-08 09:15:00
1:35 AM,59.0,32.0,36,29.85,10.0,ENE,4.6,-,N/A,,Clear,60,2012-11-08 09:35:00
1:55 AM,60.8,32.0,34,29.84,10.0,Calm,Calm,-,N/A,,Clear,0,2012-11-08 09:55:00
2:15 AM,62.6,32.0,32,29.84,10.0,Calm,Calm,-,N/A,,Clear,0,2012-11-08 10:15:00
2:35 AM,59.0,32.0,36,29.83,10.0,Calm,Calm,-,N/A,,Clear,0,2012-11-08 10:35:00
2:55 AM,59.0,32.0,36,29.83,10.0,Calm,Calm,-,N/A,,Clear,0,2012-11-08 10:55:00
3:15 AM,59.0,28.4,31,29.83,10.0,SSW,4.6,-,N/A,,Clear,210,2012-11-08 11:15:00
3:35 AM,64.4,28.4,26,29.83,10.0,South,5.8,-,N/A,,Clear,180,2012-11-08 11:35:00
3:55 AM,64.4,28.4,26,29.83,10.0,SSE,3.5,-,N/A,,Clear,160,2012-11-08 11:55:00
4:15 AM,62.6,30.2,30,29.83,10.0,Calm,Calm,-,N/A,,Clear,0,2012-11-08 12:15:00
4:35 AM,55.4,32.0,41,29.83,10.0,NNE,5.8,-,N/A,,Clear,20,2012-11-08 12:35:00
4:55 AM,55.4,32.0,41,29.83,10.0,NE,5.8,-,N/A,,Clear,50,2012-11-08 12:55:00
5:15 AM,55.4,32.0,41,29.83,10.0,NE,6.9,-,N/A,,Clear,50,2012-11-08 13:15:00
5:35 AM,59.0,30.2,34,29.83,10.0,East,5.8,-,N/A,,Clear,90,2012-11-08 13:35:00
5:55 AM,57.2,32.0,38,29.83,10.0,ENE,6.9,-,N/A,,Clear,60,2012-11-08 13:55:00
6:15 AM,60.8,28.4,29,29.83,10.0,ENE,8.1,-,N/A,,Clear,70,2012-11-08 14:15:00
6:35 AM,60.8,32.0,34,29.83,10.0,ENE,9.2,-,N/A,,Clear,60,2012-11-08 14:35:00
6:55 AM,60.8,32.0,34,29.84,10.0,ENE,8.1,-,N/A,,Clear,60,2012-11-08 14:55:00
7:15 AM,62.6,30.2,30,29.85,10.0,East,5.8,-,N/A,,Clear,80,2012-11-08 15:15:00
7:35 AM,64.4,30.2,28,29.86,10.0,East,3.5,-,N/A,,Clear,90,2012-11-08 15:35:00
7:55 AM,66.2,30.2,26,29.86,10.0,Calm,Calm,-,N/A,,Clear,0,2012-11-08 15:55:00
8:15 AM,68.0,32.0,26,29.86,10.0,Calm,Calm,-,N/A,,Clear,0,2012-11-08 16:15:00
8:35 AM,68.0,32.0,26,29.87,10.0,Calm,Calm,-,N/A,,Clear,0,2012-11-08 16:35:00
8:55 AM,71.6,28.4,20,29.86,10.0,SW,5.8,-,N/A,,Clear,230,2012-11-08 16:55:00
9:15 AM,73.4,28.4,19,29.86,10.0,SW,10.4,-,N/A,,Clear,220,2012-11-08 17:15:00
9:35 AM,73.4,26.6,18,29.85,10.0,SW,9.2,-,N/A,,Clear,220,2012-11-08 17:35:00
9:55 AM,73.4,26.6,18,29.85,10.0,South,11.5,-,N/A,,Clear,180,2012-11-08 17:55:00
10:15 AM,75.2,24.8,15,29.84,10.0,SSW,17.3,24.2,N/A,,Clear,210,2012-11-08 18:15:00
10:35 AM,75.2,24.8,15,29.84,10.0,SSW,21.9,-,N/A,,Clear,210,2012-11-08 18:35:00
10:55 AM,75.2,24.8,15,29.83,10.0,SSW,21.9,-,N/A,,Clear,210,2012-11-08 18:55:00
11:15 AM,75.2,24.8,15,29.82,10.0,SSW,17.3,31.1,N/A,,Clear,210,2012-11-08 19:15:00
11:35 AM,75.2,28.4,18,29.81,10.0,SSW,19.6,25.3,N/A,,Clear,200,2012-11-08 19:35:00
11:55 AM,75.2,26.6,17,29.80,10.0,South,11.5,17.3,N/A,,Clear,190,2012-11-08 19:55:00
12:15 PM,77.0,26.6,16,29.79,10.0,SSW,15.0,-,N/A,,Partly Cloudy,200,2012-11-08 20:15:00
12:35 PM,77.0,32.0,19,29.78,10.0,SW,18.4,23.0,N/A,,Partly Cloudy,220,2012-11-08 20:35:00
12:55 PM,77.0,32.0,19,29.77,10.0,SW,19.6,26.5,N/A,,Mostly Cloudy,220,2012-11-08 20:55:00
1:15 PM,75.2,28.4,18,29.77,10.0,South,13.8,-,N/A,,Scattered Clouds,170,2012-11-08 21:15:00
1:35 PM,73.4,28.4,19,29.76,10.0,South,16.1,20.7,N/A,,Scattered Clouds,180,2012-11-08 21:35:00
1:55 PM,73.4,30.2,20,29.76,10.0,South,19.6,25.3,N/A,,Scattered Clouds,170,2012-11-08 21:55:00
2:15 PM,73.4,32.0,22,29.75,10.0,SSE,16.1,25.3,N/A,,Mostly Cloudy,160,2012-11-08 22:15:00
2:35 PM,73.4,32.0,22,29.75,10.0,South,19.6,-,N/A,,Overcast,170,2012-11-08 22:35:00
2:55 PM,71.6,32.0,23,29.75,10.0,SSE,17.3,-,N/A,,Mostly Cloudy,160,2012-11-08 22:55:00
3:15 PM,71.6,32.0,23,29.74,10.0,SSE,13.8,-,N/A,,Partly Cloudy,150,2012-11-08 23:15:00
3:35 PM,71.6,32.0,23,29.72,10.0,SSE,18.4,-,N/A,,Clear,160,2012-11-08 23:35:00
3:55 PM,71.6,32.0,23,29.72,10.0,SSE,16.1,21.9,N/A,,Clear,160,2012-11-08 23:55:00
4:15 PM,71.6,32.0,23,29.71,10.0,SSE,19.6,23.0,N/A,,Mostly Cloudy,160,2012-11-09 00:15:00
4:35 PM,71.6,30.2,22,29.71,10.0,SSE,18.4,24.2,N/A,,Mostly Cloudy,160,2012-11-09 00:35:00
4:55 PM,69.8,28.4,21,29.70,10.0,SSE,21.9,26.5,N/A,,Mostly Cloudy,150,2012-11-09 00:55:00
5:15 PM,69.8,30.2,23,29.71,10.0,SSE,20.7,24.2,N/A,,Mostly Cloudy,160,2012-11-09 01:15:00
5:35 PM,69.8,28.4,21,29.71,10.0,South,15.0,24.2,N/A,,Mostly Cloudy,170,2012-11-09 01:35:00
5:55 PM,69.8,30.2,23,29.70,10.0,South,17.3,23.0,N/A,,Mostly Cloudy,170,2012-11-09 01:55:00
6:15 PM,69.8,32.0,25,29.71,10.0,South,17.3,26.5,N/A,,Mostly Cloudy,180,2012-11-09 02:15:00
6:35 PM,69.8,32.0,25,29.71,10.0,South,12.7,-,N/A,,Mostly Cloudy,180,2012-11-09 02:35:00
6:55 PM,71.6,32.0,23,29.71,10.0,South,19.6,24.2,N/A,,Mostly Cloudy,180,2012-11-09 02:55:00
7:15 PM,71.6,32.0,23,29.72,10.0,South,17.3,26.5,N/A,,Overcast,190,2012-11-09 03:15:00
7:35 PM,69.8,37.4,31,29.72,10.0,South,15.0,27.6,N/A,,Overcast,190,2012-11-09 03:35:00
7:55 PM,68.0,37.4,33,29.73,10.0,SSW,12.7,-,N/A,,Overcast,200,2012-11-09 03:55:00
8:15 PM,68.0,37.4,33,29.72,10.0,South,11.5,-,N/A,,Overcast,190,2012-11-09 04:15:00
8:35 PM,68.0,37.4,33,29.73,10.0,South,13.8,-,N/A,,Overcast,190,2012-11-09 04:35:00
8:55 PM,68.0,39.2,35,29.73,10.0,South,13.8,19.6,N/A,,Overcast,190,2012-11-09 04:55:00
9:15 PM,68.0,42.8,40,29.73,10.0,South,13.8,20.7,N/A,,Overcast,190,2012-11-09 05:15:00
9:35 PM,66.2,44.6,46,29.73,10.0,South,16.1,21.9,N/A,,Overcast,190,2012-11-09 05:35:00
9:55 PM,66.2,46.4,49,29.73,10.0,South,15.0,-,N/A,,Overcast,190,2012-11-09 05:55:00
10:15 PM,66.2,46.4,49,29.72,10.0,SSW,15.0,21.9,N/A,,Overcast,200,2012-11-09 06:15:00
10:35 PM,66.2,46.4,49,29.72,10.0,South,11.5,-,N/A,,Overcast,180,2012-11-09 06:35:00
10:55 PM,66.2,46.4,49,29.71,10.0,South,10.4,-,N/A,,Overcast,170,2012-11-09 06:55:00
11:15 PM,66.2,46.4,49,29.71,10.0,South,11.5,23.0,N/A,,Overcast,180,2012-11-09 07:15:00
11:35 PM,66.2,44.6,46,29.71,10.0,South,12.7,21.9,N/A,,Overcast,190,2012-11-09 07:35:00
11:55 PM,66.2,44.6,46,29.70,10.0,South,12.7,23.0,N/A,,Overcast,190,2012-11-09 07:55:00